Location: El Azufral
(10.3513°N, 67.1528°W)
Time: 19:40:54
(UTC+00:00)

Okean 1 - Pass Details

Date: 13 June 2024
Orbit: 502 x 529 km, 82.5° (Epoch: 24 July)

Event Time Altitude Azimuth Distance (km) Brightness Sun altitude
Rises 23:07:25 0° 192° (SSW) 2,645 6.7 -4.6°
Reaches altitude 10° 23:09:35 10° 197° (SSW) 1,761 5.8 -5.1°
Maximum altitude 23:13:21 53° 274° (W) 653 4.2 -5.9°
Drops below altitude 10° 23:17:10 10° 352° (N) 1,774 6.4 -6.8°
Sets 23:19:21 0° 357° (N) 2,666 7.2 -7.3°
